Location: Austin
(30.3000°N, 97.7500°W)
Time: 06:10:07
(UTC-05:00)

METEOR-M - Pass Details

Date: 16 June 2025
Orbit: 814 x 816 km, 98.7° (Epoch: 08 July)

Event Time Altitude Azimuth Distance (km) Brightness Sun altitude
Rises 05:06:10 0° 5° (N) 3,345 8.0 -15.7°
Reaches altitude 10° 05:08:35 10° 359° (N) 2,409 7.1 -15.3°
Maximum altitude 05:13:40 47° 287° (WNW) 1,067 4.5 -14.4°
Enters shadow 05:17:09 19° 222° (SW) 1,827 5.3 -13.8°
